Location: Innerarity Island Observatory
(30.3139°N, 87.4867°W)
Time: 12:41:51
(UTC-06:00)

JAS-2 - Visible Passes

Search period start: 05 March 2015 00:00
Search period end: 15 March 2015 01:00
Orbit: 800 x 1321 km, 98.5° (Epoch: 04 March)

Date Brightness Start Highest point End Pass type
(mag) Time Alt. Az. Time Alt. Az. Time Alt. Az.
05 Mar 10.4 04:01:06 10° NNE 04:08:46 67° E 04:16:34 10° S visible
05 Mar 11.1 05:47:36 10° NNW 05:53:16 22° WNW 05:58:42 10° WSW visible
06 Mar 11.9 03:07:25 10° NE 03:13:31 26° E 03:19:55 10° SSE visible
06 Mar 10.2 04:51:17 10° N 04:58:46 55° WNW 05:06:20 10° SSW visible
07 Mar 10.5 03:56:17 10° NNE 04:03:57 63° E 04:11:43 10° S visible
07 Mar 11.1 05:42:35 10° NNW 05:48:30 24° WNW 05:54:11 10° WSW visible
08 Mar 12.0 04:02:46 10° NE 04:08:38 24° E 04:14:51 10° SE visible
08 Mar 10.1 05:46:23 10° N 05:53:59 59° WNW 06:01:36 10° SSW visible
09 Mar 10.6 04:51:29 10° NNE 04:59:09 59° E 05:06:50 10° S visible
09 Mar 11.0 06:37:35 10° NNW 06:43:43 25° WNW 06:49:38 10° WSW visible
10 Mar 12.0 03:58:08 10° NE 04:03:46 23° E 04:09:45 10° SE visible
10 Mar 10.1 05:41:31 10° N 05:49:13 62° WNW 05:56:50 10° SSW visible
11 Mar 10.7 04:46:42 10° NNE 04:54:21 55° E 05:01:55 10° S visible
11 Mar 11.0 06:32:37 10° NNW 06:38:57 27° WNW 06:45:03 10° WSW visible
12 Mar 12.1 03:53:31 10° NE 03:58:54 21° E 04:04:36 10° SE visible
12 Mar 10.1 05:36:40 10° N 05:44:27 66° WNW 05:52:04 10° SSW visible
13 Mar 10.8 04:41:57 10° NNE 04:49:32 52° E 04:56:59 10° S visible
13 Mar 10.9 06:27:40 10° NNW 06:34:11 29° WNW 06:40:26 10° WSW visible
14 Mar 12.2 03:48:58 10° NE 03:54:02 19° E 03:59:25 10° SE visible
14 Mar 10.0 05:31:49 10° N 05:39:40 70° WNW 05:47:16 10° SSW visible
